GW4115 Weather Reports


time (UTC)temp
C
wind
direction
speed
KPH
gust
KPH
rain 1hr
cm
rain 24hr
cm
rain mn
cm
humidity
%
barometer
mb
20260505153007 15 53 11.3 19.3 0.00 0.30 0.30 80 1007.3
20260505151506 15 67 11.3 20.9 0.00 0.30 0.30 81 1007.2
20260505124522 13 30 4.8 14.5 0.00 0.30 0.30 84 1007.1
20260505123015 14 46 4.8 11.3 0.00 0.30 0.30 86 1006.9
20260505121515 14 76 4.8 12.9 0.00 0.30 0.30 85 1006.5
20260505120012 15 342 4.8 11.3 0.00 0.30 0.30 86 1006.6
20260505114521 15 346 3.2 9.7 0.00 0.30 0.30 86 1006.8
20260505113023 15 42 6.4 14.5 0.00 0.30 0.30 88 1005.9
20260505111524 15 30 4.8 9.7 0.03 0.30 0.30 88 1006.0
20260505101522 15 265 0.0 0.0 0.00 0.28 0.28 89 1005.3
20260505100029 15 340 0.0 0.0 0.03 0.28 0.28 87 1005.2
20260505094527 15 148 0.0 0.0 0.10 0.28 0.28 86 1004.9
20260505093029 15 123 0.0 6.4 0.20 0.28 0.28 87 1004.3
20260505091518 15 178 3.2 6.4 0.23 0.28 0.28 89 1004.4
20260505090024 15 121 0.0 3.2 0.23 0.25 0.25 88 1005.6
20260505084526 15 254 0.0 9.7 0.18 0.18 0.18 87 1006.6
20260505083033 16 266 3.2 4.8 0.08 0.08 0.08 87 1006.5
20260505081530 16 247 4.8 11.3 0.05 0.05 0.05 85 1006.1
20260505080023 16 223 3.2 8.0 0.03 0.03 0.03 80 1005.8
20260505074522 17 293 0.0 6.4 0.00 0.00 0.00 75 1005.6
20260505073036 17 275 0.0 0.0 0.00 0.00 0.00 76 1005.6
20260505071529 17 209 0.0 0.0 0.00 0.00 0.00 76 1005.6
20260505070028 17 78 0.0 0.0 0.00 0.00 0.00 75 1005.4
20260505064510 17 123 0.0 0.0 0.00 0.00 0.00 75 1005.9
20260505063009 16 222 0.0 0.0 0.00 0.00 0.00 76 1006.2
20260505061507 16 145 0.0 0.0 0.00 0.00 0.00 76 1006.3
20260505060016 16 202 0.0 0.0 0.00 0.00 0.00 76 1006.1
20260505054506 16 188 0.0 0.0 0.00 0.00 0.00 75 1006.2
20260505053008 16 121 0.0 0.0 0.00 0.00 0.00 75 1006.2
20260505051514 17 130 0.0 0.0 0.00 0.00 0.00 75 1006.2
20260505041511 17 123 0.0 0.0 0.00 0.00 0.00 73 1006.9
20260505040016 17 273 0.0 0.0 0.00 0.00 0.00 72 1007.2
20260505034503 17 273 0.0 0.0 0.00 0.00 0.00 70 1007.4
20260505033010 18 273 0.0 0.0 0.00 0.00 0.00 70 1007.3
20260505031511 18 273 0.0 0.0 0.00 0.00 0.00 71 1007.5
20260505030008 18 273 0.0 0.0 0.00 0.00 0.00 70 1007.2
20260505024506 18 273 0.0 0.0 0.00 0.00 0.00 70 1007.2
20260505023003 18 273 0.0 0.0 0.00 0.00 0.00 68 1006.8
20260505021503 18 224 0.0 0.0 0.00 0.00 0.00 68 1006.7
20260505020012 19 224 0.0 0.0 0.00 0.00 0.00 66 1006.5
20260505014517 20 254 0.0 0.0 0.00 0.00 0.00 65 1006.2
20260505013014 20 169 0.0 0.0 0.00 0.00 0.00 65 1005.9
20260505011504 20 360 0.0 0.0 0.00 0.00 0.00 62 1005.8
20260505010026 20 309 0.0 0.0 0.00 0.00 0.00 61 1005.7
20260505004528 21 24 0.0 0.0 0.00 0.00 0.00 60 1005.7
20260505003020 22 223 0.0 0.0 0.00 0.00 0.00 59 1005.6
20260505001522 22 142 0.0 0.0 0.00 0.00 0.00 55 1005.5
20260505000014 23 280 0.0 3.2 0.00 0.00 0.00 52 1005.5
20260504234520 24 9 3.2 6.4 0.00 0.00 0.00 50 1005.4
20260504233012 24 176 0.0 4.8 0.00 0.00 0.00 49 1005.3
20260504231523 25 248 0.0 6.4 0.00 0.00 0.00 48 1005.6
20260504230024 25 273 0.0 6.4 0.00 0.00 0.00 49 1005.6
20260504224507 26 9 1.6 6.4 0.00 0.00 0.00 49 1005.7
20260504223023 26 50 1.6 8.0 0.00 0.00 0.00 49 1005.6
20260504221520 27 242 1.6 9.7 0.00 0.00 0.00 50 1005.7
20260504220014 26 304 1.6 8.0 0.00 0.00 0.00 52 1005.7
20260504214517 26 278 1.6 4.8 0.00 0.00 0.00 50 1005.9
20260504213015 26 277 1.6 4.8 0.00 0.00 0.00 51 1006.0
20260504211520 26 252 3.2 9.7 0.00 0.00 0.00 45 1006.0
20260504210022 26 245 6.4 20.9 0.00 0.00 0.00 47 1006.1
20260504204551 27 272 3.2 11.3 0.00 0.00 0.00 51 1006.4
20260504203031 27 283 3.2 12.9 0.00 0.00 0.00 51 1006.6
20260504201514 27 177 3.2 6.4 0.00 0.00 0.00 49 1006.8
20260504200028 27 271 3.2 11.3 0.00 0.00 0.00 52 1006.7
20260504194525 27 261 1.6 9.7 0.00 0.00 0.00 48 1007.2
20260504193026 26 319 3.2 20.9 0.00 0.00 0.00 51 1007.1
20260504191524 26 236 3.2 14.5 0.00 0.00 0.00 51 1007.3
20260504190016 27 248 4.8 11.3 0.00 0.00 0.00 51 1007.2
20260504184521 26 273 4.8 14.5 0.00 0.00 0.00 49 1007.2
20260504183016 26 124 3.2 9.7 0.00 0.00 0.00 49 1007.4
20260504181513 26 269 3.2 12.9 0.00 0.00 0.00 50 1007.3
20260504180013 26 115 1.6 9.7 0.00 0.00 0.00 52 1007.5
20260504174523 26 360 3.2 11.3 0.00 0.00 0.00 51 1007.8
20260504173025 26 297 3.2 6.4 0.00 0.00 0.00 52 1007.7
20260504171537 26 20 3.2 11.3 0.00 0.00 0.00 53 1007.7